Regional Weather Roundup
Issued by NWS

Home | Current Version | Previous Version | Text Only | Print | Product List | Glossary On
Versions: 1 2 3 4 5 6 7 8 9 10 11 12 13 14 15 16 17 18 19 20 21 22 23 24 25 26 27 28 29 30 31 32 33 34 35 36 37 38 39 40 41 42 43 44 45 46 47 48 49 50
292
ASUS43 KDMX 091903
RWRIA

WEATHER ROUNDUP FOR IOWA
NATIONAL WEATHER SERVICE DES MOINES IA
100 PM CST TUE FEB 09 2016

NOTE: "FAIR" INDICATES FEW OR NO CLOUDS BELOW 12,000 FEET WITH NO
SIGNIFICANT WEATHER AND/OR OBSTRUCTIONS TO VISIBILITY.

* - THESE STATIONS ARE NOT NWS STATIONS...THUS NOT UNDER NWS
QUALITY CONTROL.  THEY ALSO DO NOT REPORT WEATHER SUCH
AS PRECIPITATION OR FOG.

IAZ001>003-012>014-020>022-031>034-043>046-092000-
   NORTHWEST IOWA

CITY           SKY/WX    TMP DP  RH WIND       PRES   REMARKS
CARROLL *      SUNNY     14   7  73 NW23G31   30.18F WCI  -5
CHEROKEE *     MOSUNNY   14   3  62 NW20G25   30.22F WCI  -3
DENISON *      SUNNY     14   5  67 N17G23    30.20S WCI  -3
LE MARS *      CLOUDY    18   9  68 NW13      30.26F WCI   4
ORANGE CITY *  CLOUDY    16   7  67 NW16G23   30.21F WCI   0
SHELDON *      CLOUDY    14   5  67 NW22      30.20F WCI  -4
SIOUX CITY     CLOUDY    20   7  57 NW12      30.25F WCI   8
SPENCER        MOSUNNY   14   4  64 NW24      30.18F WCI  -5
STORM LAKE *   SUNNY     14   5  67 NW17G24   30.18S WCI  -3
$$

IAZ055>058-069>071-079>083-090>094-092000-
   SOUTHWEST IOWA

CITY           SKY/WX    TMP DP  RH WIND       PRES   REMARKS
ATLANTIC *     SUNNY     16   5  62 NW20G26   30.21F WCI  -1
AUDUBON *      SUNNY     16   5  62 NW18G25   30.19S WCI  -1
CLARINDA *     SUNNY     19   7  58 N22G31    30.24F WCI   3
COUNCIL BLFS * SUNNY     16   5  62 NW16G28   30.24S WCI   0
CRESTON *      PTSUNNY   16   7  67 NW23G29   30.16F WCI  -2
HARLAN  *      SUNNY     16   7  67 N23       30.25F WCI  -2
LAMONI         MOSUNNY   19   7  59 NW22G32   30.13F WCI   2
SHENANDOAH *   SUNNY     21   9  58 N14G25    30.26F WCI   8
$$

IAZ047>049-059>061-072>074-084-092000-
   CENTRAL IOWA

CITY           SKY/WX    TMP DP  RH WIND       PRES   REMARKS
AMES           MOSUNNY   13   4  67 N23G33    30.14S WCI  -6
ANKENY *       CLOUDY    16   5  62 NW16G25   30.14F WCI   0
BOONE *        SUNNY     14   3  62 NW20      30.12S WCI  -3
CHARITON *     PTSUNNY   18   7  62 NW22      30.11F WCI   0
DES MOINES     MOSUNNY   16   5  62 NW26      30.14F WCI  -3
GRINNELL*      MOSUNNY   12   7  79 NW23G29   30.09S HAZE    WCI  -7
KNOXVILLE *    PTSUNNY   16   5  62 NW20G30   30.09F WCI  -1
MARSHALLTOWN   MOSUNNY   12   3  67 NW23      30.09S WCI  -7
NEWTON *       LGT SNOW  12   7  79 NW25      30.11S WCI  -8
PELLA *        PTSUNNY   15   7  71 NW23G30   30.12F WCI  -4
$$

IAZ004>006-015-016-023>025-035-036-092000-
   NORTH CENTRAL IOWA

CITY           SKY/WX    TMP DP  RH WIND       PRES   REMARKS
ALGONA *       SUNNY     14   5  67 NW21G30   30.12F WCI  -4
CLARION *      CLOUDY    12   3  67 NW22G30   30.12F WCI  -7
ESTHERVILLE    SUNNY     13   4  67 NW25      30.15F WCI  -7
FORT DODGE *   SUNNY     14   3  62 N13G23    30.16S WCI   0
MASON CITY     SUNNY     11   3  70 NW24      30.09F WCI  -9
FOREST CITY *    N/A     12   3  67 N23G32    30.09F WCI  -7
WEBSTER CITY * PTSUNNY   12   5  73 NW22G29   30.12S WCI  -7
IOWA FALLS *     N/A     12   6  74 NW28      30.10F WCI  -8
$$

IAZ007>011-017>019-026>030-037>042-050>054-066-092000-
   NORTHEAST IOWA

CITY           SKY/WX    TMP DP  RH WIND       PRES   REMARKS
CEDAR RAPIDS   PTSUNNY   12   5  73 NW25G32   30.02F WCI  -8
CHARLES CITY * SUNNY     10   1  67 NW26      30.05F WCI -11
CLINTON *      MOSUNNY   18   8  65 NW17      29.95S WCI   3
DECORAH *      SUNNY     10  -2  56 N18G26    29.99S WCI  -8
DUBUQUE        MOSUNNY   13   4  67 NW20      29.93F WCI  -5
MONTICELLO *   MOSUNNY   14   3  62 NW18      29.99S WCI  -3
OELWEIN *      LGT SNOW   9   1  72 NW22G32   30.02F WCI -11
WATERLOO       MOSUNNY   11   3  70 NW25G32   30.06F WCI -10
$$

IAZ064-065-067-068-078-092000-
   EAST CENTRAL IOWA

CITY           SKY/WX    TMP DP  RH WIND       PRES   REMARKS
DAVENPORT      CLOUDY    17   7  64 NW17G28   29.97S WCI   1
IOWA CITY      PTSUNNY   15   5  64 NW21G32   30.05F WCI  -2
MT. PLEASANT * CLOUDY    18   8  65 NW16G28   30.04S WCI   3
MUSCATINE *    CLOUDY    18   9  68 NW22      30.03F WCI   0
QUAD CITIES    CLOUDY    18   7  62 NW21G30   29.98S WCI   1
$$

IAZ062-063-075>077-085>089-095>099-092000-
   SOUTHEAST IOWA

CITY           SKY/WX    TMP DP  RH WIND       PRES   REMARKS
BURLINGTON     CLOUDY    16   7  67 NW21G30   30.01F WCI  -1
FAIRFIELD *    FLURRIES  16   5  62 NW23G33   30.05F WCI  -2
FORT MADISON * CLOUDY    16   9  73 NW21G31   30.03S WCI  -2
KEOKUK *       FLURRIES  18   7  62 NW17G26   30.04F WCI   2
OSKALOOSA *      N/A     14   7  73 NW26G35   30.09F WCI  -6
OTTUMWA        PTSUNNY   16   7  67 NW24G30   30.08F WCI  -2
WASHINGTON *   FLURRIES  16   7  67 NW22G31   30.05F WCI  -2
$$

ABBREVIATIONS USED IN REMARKS
   TC - TEMPERATURES IN CELSIUS
  WCI - WIND CHILL INDEX
   HX - HEAT INDEX
  VSB - VISIBILITY
$$





USA.gov is the U.S. government's official web portal to all federal, state and local government web resources and services.